www.pogodaiklimat.ru

Погода и климат >> Архив погоды >> Россия >> Краснодарский край >> Отрадная


ПОГОДА в Отрадной

  • Прогноз погоды в Отрадной
  • Монитор погоды в Отрадной

АРХИВ ПОГОДЫ в Отрадной

Время (UTC), дата Ветер
(напр.,м/с)
 
Видим.   Явления Облачность Т
(С)
Тd
(С)
f
(%)
Тe
(С)
Тes
(С)
Комфортность P
(гПа)
Po
(гПа)
Тmin
(С)
Tmax
(С)
R
(мм)
R24
(мм)
S
(см)
15 9.07 З 5
{13}
20 км 10/10 600 м
[Sc]
+22.8 +11.5 49 +25 +25 комфорт 1010.6 957.0 +27.6
18 9.07 Ю 2 10 км 10/10 600 м
[Sc]
+20.5 +11.5 56 +23 +23 комфорт 1012.0 957.9
21 9.07 ЮЗ 4 10 км 10/10 600 м
[Sc]
+19.2 +4.8 39 +20 +20 1012.6 958.2
00 10.07 ЮВ 1 10 км 10/10 600 м
[Sc]
+16.4 +9.0 62 +17 +17 1012.2 957.3
03 10.07 ЮВ 1 20 км ясно +14.2 +10.5 78 +15 +16 1011.2 956.0 +12.7
06 10.07 В 1 20 км 6/0
[Ci fib]
+22.2 +7.3 38 +23 +34 комфорт 1009.0 955.3
09 10.07 ЮВ 2 20 км 3/0
[Ci fib]
+25.7 +8.1 33 +26 +44 жарко 1007.1 954.1
12 10.07 З 2 20 км 6/0
[Ac trans]
+26.3 +7.1 29 +26 +34 жарко 1005.7 953.0
15 10.07 З 1 20 км 9/0
[Ac trans]
+26.2 +7.8 31 +26 +27 жарко 1005.8 953.0 +28.1
18 10.07 З 3 10 км 8/0
[Ac trans]
+22.0 +9.0 43 +23 +23 комфорт 1007.0 953.4
21 10.07 ЮЗ 2 10 км 6/0
[Ac trans]
+17.3 +9.6 61 +18 +18 1007.6 953.2
00 11.07 ЮВ 1 10 км 9/0
[Ac trans]
+14.3 +11.2 82 +15 +15 1007.4 952.4
03 11.07 ЮВ 1 20 км 9/0
[Ac trans]
+15.7 +10.7 72 +16 +17 1006.5 951.8 +12.7
06 11.07 В 1 10 км 10/10 600 м
[Sc]
+17.2 +12.4 73 +18 +18 1005.5 951.2
09 11.07 ЮВ 1 10 км 10/10 600 м
[Sc]
+23.8 +10.3 42 +25 +25 комфорт 1003.2 950.2
12 11.07 З 6
{10}
10 км 9/9 600 м
[Sc]
+24.4 +9.8 40 +25 +26 комфорт 1002.9 950.0
15 11.07 СЗ 5 10 км 9/9 600 м
[Sc]
+21.4 +11.4 53 +23 +23 комфорт 1004.3 950.8 +26.9
18 11.07 С 3 10 км 9/9 600 м
[Sc]
+18.5 +12.7 69 +19 +19 1005.7 951.7
21 11.07 СВ 1 10 км 10/10 600 м
[Sc]
+16.1 +12.5 79 +17 +17 1005.2 950.7
00 12.07 штиль 0 4000 м слаб. ливневой дождь 10/10 300 м
[Cb cap]
+16.2 +11.8 75 +16 +16 1005.0 950.5
03 12.07 З 3 10 км {ливн. осадки} 10/10 600 м
[Sc diur, vesp]
+14.3 +13.2 93 +13 +13 1005.4 950.6 +14.3 3
06 12.07 З 2 10 км в посл. час ливневой дождь 10/10 300 м
[Sc diur, vesp]
+14.5 +13.1 91 +14 +14 1007.7 952.7
09 12.07 С 2 10 км 10/10 600 м
[Sc diur, vesp]
+15.7 +13.9 89 +16 +16 1008.5 953.8
12 12.07 З 4 20 км 10/10 600 м
[Sc diur, vesp]
+17.7 +12.7 73 +17 +17 1009.1 954.7
15 12.07 С 2 20 км 9/9 600 м
[Sc diur, vesp]
+18.5 +12.8 69 +20 +20 1009.5 955.3 +18.2 8
18 12.07 ЮВ 1 10 км 8/8 600 м
[Sc diur, vesp]
+15.0 +13.2 89 +15 +15 1010.9 955.9
21 12.07 З 1 10 км 6/6 600 м
[Sc diur, vesp]
+13.0 +12.1 94 +13 +13 1010.6 955.3
00 13.07 ЮВ 1 10 км 10/10 600 м
[Sc diur, vesp]
+12.7 +11.6 93 +13 +13 1009.8 954.5
03 13.07 ЮВ 1 10 км 9/9 600 м
[Sc diur, vesp]
+13.3 +12.5 95 +13 +13 1009.8 954.6 +12.1
06 13.07 В 2 20 км 9/9 600 м
[Sc]
+18.2 +14.0 76 +19 +20 1009.3 955.0
09 13.07 СЗ 4 20 км 9/9 600 м
[Cu med, cong]
+22.2 +12.1 53 +25 +26 комфорт 1008.5 955.0
12 13.07 З 4 20 км 9/9 600 м
[Cu med, cong]
+20.9 +11.6 55 +23 +24 комфорт 1009.0 955.1
15 13.07 З 3 20 км 9/9 600 м
[Cu med, cong]
+21.5 +10.5 50 +23 +23 комфорт 1009.7 956.0 +22.2
18 13.07 З 3 10 км 10/10 600 м
[Sc]
+17.8 +11.7 67 +18 +18 1012.0 957.5
21 13.07 ЮВ 1 10 км 9/9 600 м
[Sc]
+15.1 +12.5 84 +16 +16 1012.9 957.8
00 14.07 штиль 0 н/о 9/9 600 м
[Sc]
+13.8 +12.0 89 +13 +13 1011.7 956.5
03 14.07 ЮВ 1 20 км 9/9 600 м
[Sc]
+13.5 +12.4 93 +14 +14 1012.2 956.9 +12.5
06 14.07 В 1 10 км 9/9 600 м
[Sc]
+19.3 +12.0 63 +22 +23 комфорт 1011.1 956.9
09 14.07 В 2 10 км 9/9 600 м
[Cu med, cong]
+22.2 +11.3 50 +24 +26 комфорт 1009.7 956.1
12 14.07 В 2 н/о н/о +23.9 +9.5 40 +25 +26 комфорт 1008.2 954.9
15 14.07 В 3 10 км 9/3 600 м
[Cu hum Ac trans]
+23.3 +8.9 40 +25 +25 комфорт 1007.9 954.5 +24.8
18 14.07 ЮВ 2 10 км 8/0
[Ac trans]
+18.4 +12.0 66 +19 +19 1009.2 954.9
21 14.07 ЮЗ 2 10 км 9/0
[Ac trans]
+14.8 +11.8 82 +14 +14 1008.3 953.4
00 15.07 Ю 1 10 км 9/0
[Ac trans]
+12.2 +10.9 92 +12 +12 1007.7 952.4
03 15.07 ЮВ 1 10 км ясно +11.7 +10.5 92 +11 +13 1007.1 951.7 +10.6
06 15.07 В 4 20 км 9/0
[Ac trans]
+20.5 +13.2 63 +23 +26 комфорт 1004.8 951.2
09 15.07 В 5
{11}
20 км 10/10 600 м
[Sc diur, vesp]
+22.9 +10.3 45 +25 +25 комфорт 1003.5 950.3
12 15.07 В 2
{12}
20 км 10/10 600 м
[Sc diur, vesp]
+23.7 +10.8 44 +25 +25 комфорт 1002.9 949.8
15 15.07 С 1 10 км гроза, ливневой дождь 10/10 300 м
[Cb calv]
+18.7 +16.0 84 +21 +21 комфорт 1005.7 951.7 +24.5 1
18 15.07 ЮВ 2 10 км {гроза, ливн. осадки} 10/10 600 м
[Sc diur, vesp]
+16.4 +15.2 93 +16 +16 1005.9 951.5
21 15.07 ЮВ 2 10 км 8/8 600 м
[Sc diur, vesp]
+14.4 +13.0 91 +14 +14 1006.5 951.7
00 16.07 ЮВ 1 10 км 10/10 600 м
[Sc diur, vesp]
+14.3 +13.4 94 +15 +15 1006.6 951.8
03 16.07 ЮВ 2 10 км 10/10 600 м
[Sc diur, vesp]
+14.0 +12.9 93 +13 +13 1007.5 952.6 +12.8 0.5
06 16.07 В 2 10 км 9/9 600 м
[Sc]
+19.9 +14.0 69 +22 +24 комфорт 1006.8 952.9
09 16.07 СВ 2 10 км 9/9 600 м
[Sc]
+23.9 +14.3 55 +26 +28 жарко 1005.2 952.2

 

Местоположение метеостанции Отрадная (Краснодарский край, Россия): широта 44.40 долгота 41.48 высота над уровнем моря 477 м.

В архиве по умолчанию представлена погода в Отрадной за последнюю неделю. Архивные данные за месяц целиком и за предыдущие месяцы, начиная с января 2011 года, Вы можете получить, выбрав интересующий диапазон дат из раскрывающегося списка и нажав кнопку "Ввод!".


*Определитесь, кто Вы:
робот инопланетянин человек

Внимание! Время в таблицах - всемирное. Для получения местного времени необходимо прибавить поправку, которая равна 3 ч.

Смотрите также архив погоды в соседних городах и на ближайших метеорологических станциях:

Погода в Невинномысске (Ставропольский край, Россия) (47 км)
Погода в Черкесске (Карачаево-Черкессия, Россия) (51 км)
Погода в Зеленчукской (Карачаево-Черкессия, Россия) (59 км)
Погода в Псебае (Краснодарский край, Россия) (63 км)
Погода в Лабинске (Краснодарский край, Россия) (65 км)
Погода в Даховской (Адыгея, Россия) (65 км)
Погода в Армавире (Краснодарский край, Россия) (71 км)
Погода в Ставрополе (Ставропольский край, Россия) (93 км)
Погода в Дондуковской (Адыгея, Россия) (103 км)
Погода в Теберде (Карачаево-Черкессия, Россия) (108 км)

Пояснения к столбцам:

Ветер - указаны скорость ветра в м/с - средняя за 10 мин, порывы в срок и между сроками (в фигурных скобках) и направление, откуда дует ветер: С - северный, СВ - северо-восточный, В - восточный, ЮВ - юго-восточный, Ю - южный, ЮЗ - юго-западный, З - западный, СЗ - северо-западный.
Видимость - горизонтальная дальность видимости в метрах или километрах. При видимости от 1 до 10 км при отсутствии осадков обычно наблюдается дымка, при ухудшении видимости до 1 км и менее - туман. В сухую погоду видимость может ухудшаться дымом, пылью или мглою.
Явления - указаны атмосферные явления, наблюдавшиеся в срок или в последний час перед сроком; фигурными скобками обозначены явления, наблюдавшиеся между сроками (за 1-3 часа до срока); квадратными скобками обозначены град или гололедные отложения с указанием их диаметра в мм.
Облачность - указаны через наклонную черту общая и нижняя облачность в баллах и высота нижней границы облаков в метрах; квадратными скобками обозначены формы облаков: Ci - перистые, Cs - перисто-слоистые, Cc - перисто-кучевые, Ac - высококучевые, As - высокослоистые, Sc - слоисто-кучевые, Ns - слоисто-дождевые, Cu - кучевые, Cb - кучево-дождевые. Подробнее классификацию облаков см. в Атласе облаков (PDF).
T - Температура воздуха - температура, измеренная на высоте 2 м над землей.
Td - Температура точки росы - температура, при понижении до которой содержащийся в воздухе водяной пар достигнет насыщения.
f - Относительная влажность воздуха - влажноcть воздуха, измеренная на высоте 2 м над землей.
Te - Эффективная температура - температура, которую ощущает одетый по сезону человек в тени. Характеристика душности погоды. При расчете учитывается влияние влажности воздуха и скорости ветра на теплоощущения человека.
Tes - Эффективная температура на солнце - температура, которую ощущает человек, с поправкой на солнечный нагрев. Характеристика знойности погоды. Зависит от высоты солнца над горизонтом, облачности и скорости ветра. Ночью, в пасмурную погоду, а также при ветре 12 м/с и более поправка равна нулю.
P - Атмосферное давление - приведенное к уровню моря атмосферное давление.
Po - Атмосферное давление - измеренное на уровне метеостанции атмосферное давление.
Tmin - Минимальная температура - минимум температуры воздуха на высоте 2 м над землей.
Tmax - Максимальная температура - максимум температуры воздуха на высоте 2 м над землей.
R - Количество осадков - Количество выпавших осадков за период времени, мм. При наведении курсора мыши на число - период времени, за который выпало указанное количество осадков.
R24 - Количество осадков - Количество выпавших осадков за 24 часа, мм.
S - Снежный покров - Высота снежного покрова, см. При наведении курсора мыши на число - состояние снежного покрова и степень покрытия местности в баллах.